STARLINK-5678 (55460 NORAD) Tracking and Keplerian Element Data

This shows tracking and keplerian element data for the satellite.

Feedback or suggestion? Click here.




ElementValue
Catalog55460
NameSTARLINK-5678
Epoch Orbit831
Epoch Day85.25001157
Epoch Year2023
RAAN76.7523
Inclination43.0007
Eccentricity0.0001444
Argument of Perigee267.6343
Mean Anonmoly147.3302
Mean Motion15.48916775
Decay Rate-0.00039406
L11 55460U 23015M 23085.25001157 -.00039406 00000+0 -70996-3 0 9997
L22 55460 43.0007 76.7523 0001444 267.6343 147.3302 15.48916775 8315



Live tracking and technical data element details for STARLINK-5678 (NORAD 55460). STARLINK-5678 can be tracked NOW for your location showing map with azimuth and elevation plus other details from your city location.







IsCatalogInMostPopularTable: catalog: 55460, numindb: -1

Insert: records affected: 1


GetName: 55460 STARLINK-5678

Hit Count: inserted at: Tue, 28 Mar 2023 01:45:17 GMT